Regional Weather Roundup
Issued by NWS

Home | Current Version | Previous Version | Text Only | Print | Product List | Glossary Off
Versions: 1 2 3 4 5 6 7 8 9 10 11 12 13 14 15 16 17 18 19 20 21 22 23 24 25 26 27 28 29 30 31 32 33 34 35 36 37 38 39 40 41 42 43 44 45 46 47 48 49 50

904
ASUS43 KOAX 140610
RWRNE

WEATHER ROUNDUP FOR NEBRASKA
NATIONAL WEATHER SERVICE OMAHA NE
1200 AM CST THU DEC 14 2017

NOTES: SATELLITE DATA IS BEING USED TO AUGMENT CLOUD COVER ABOVE
       12000 FEET.
       "FAIR" INDICATES FEW OR NO CLOUDS BELOW 12,000 FEET WITH NO
       SIGNIFICANT WEATHER AND/OR OBSTRUCTIONS TO VISIBILITY.


NEZ001>004-019>022-054>056-140700-
NEBRASKA PANHANDLE

CITY           SKY/WX    TMP DP  RH WIND       PRES   REMARKS
SCOTTSBLUFF    CLOUDY    34  29  82 NW16G22   30.16R WCI  24
6HR MIN TEMP:  34; 6HR MAX TEMP:  44; 6HR PCP: TRACE;

ALLIANCE       CLOUDY    35  23  61 NW8       30.12R WCI  29
6HR MIN TEMP:  32; 6HR MAX TEMP:  38;

CHADRON        CLOUDY    34  23  64 SW3       30.13R
6HR MIN TEMP:  29; 6HR MAX TEMP:  41;

GORDON         CLOUDY    36  25  65 NW8       30.08F WCI  29
6HR MIN TEMP:  35; 6HR MAX TEMP:  39;

KIMBALL        CLOUDY    34  23  63 N18G24    30.13S WCI  23
SIDNEY         CLOUDY    36  18  48 N9        30.12R WCI  29
6HR MIN TEMP:  36; 6HR MAX TEMP:  41;

$$

NEZ057>060-069>072-079>082-140700-
SOUTHWEST NEBRASKA

CITY           SKY/WX    TMP DP  RH WIND       PRES   REMARKS
NORTH PLATTE   CLOUDY    35  23  61 NW7       30.09R WCI  29
6HR MIN TEMP:  33; 6HR MAX TEMP:  41;

IMPERIAL       CLOUDY    37  21  52 NW8       30.11R WCI  31
6HR MIN TEMP:  28; 6HR MAX TEMP:  38;

LEXINGTON      CLOUDY    35  23  61 NW9       30.06R WCI  28
MCCOOK         MOCLDY    37  22  54 NW9       30.10R WCI  30
6HR MIN TEMP:  31; 6HR MAX TEMP:  38;

OGALLALA       CLOUDY    39  23  52 N8        30.10S WCI  34
$$

NEZ005>010-023>029-035>040-094-140700-
NORTH CENTRAL NEBRASKA

CITY           SKY/WX    TMP DP  RH WIND       PRES   REMARKS
VALENTINE      PTCLDY    37  22  54 NW8       30.06R WCI  31
6HR MIN TEMP:  37; 6HR MAX TEMP:  41;

AINSWORTH      PTCLDY    30  26  83 NW3       30.05S
BROKEN BOW     CLOUDY    35  24  64 N6        30.05R WCI  30
6HR MIN TEMP:  35; 6HR MAX TEMP:  42;

O`NEILL        CLOUDY    33  27  76 NW9       30.04S WCI  26
ORD            CLOUDY    33  26  75 NW6       30.04R WCI  28
6HR MIN TEMP:  33; 6HR MAX TEMP:  41;

THEDFORD       CLOUDY    38  23  54 NW16G23   30.05F WCI  28
$$

NEZ041-046>049-061>064-073>077-083>087-140700-
SOUTH CENTRAL NEBRASKA

CITY           SKY/WX    TMP DP  RH WIND       PRES   REMARKS
GRAND ISLAND   MOCLDY    31  26  82 NW9       30.05R WCI  23
6HR MIN TEMP:  29; 6HR MAX TEMP:  42;

AURORA         CLOUDY    30  25  81 NW8       30.03S WCI  23
HASTINGS       CLOUDY    33  25  72 N10       30.05R WCI  25
6HR MIN TEMP:  29; 6HR MAX TEMP:  41;

HEBRON         CLOUDY    32  26  77 NW6       30.04R WCI  26
HOLDREGE       CLOUDY    35  24  63 NW7       30.06R WCI  29
KEARNEY        CLOUDY    31  25  78 N8        30.07R WCI  23
YORK           PTCLDY    28  25  86 CALM      30.03R
$$

NEZ011>018-030>034-042>045-140700-
NORTHEAST NEBRASKA

CITY           SKY/WX    TMP DP  RH WIND       PRES   REMARKS
NORFOLK        CLOUDY    36  24  62 N18       30.00R WCI  26
6HR MIN TEMP:  35; 6HR MAX TEMP:  38;

ALBION         CLOUDY    35  27  71 NW9       30.02F WCI  28
BLAIR          CLOUDY    37  28  67 N16       29.98S WCI  28
COLUMBUS       CLOUDY    37  25  61 NW12      30.02S WCI  29
FREMONT        CLOUDY    37  26  63 NW7       30.01S WCI  32
TEKAMAH        CLOUDY    36  27  69 N14       30.00R WCI  27
6HR MIN TEMP:  36; 6HR MAX TEMP:  41;

WAYNE          CLOUDY    36  25  64 N14       30.00S WCI  27
$$

NEZ050>053-065>068-078-088>093-140700-
SOUTHEAST NEBRASKA

CITY           SKY/WX    TMP DP  RH WIND       PRES   REMARKS
LINCOLN        CLOUDY    39  25  57 N14       30.03R WCI  31
6HR MIN TEMP:  36; 6HR MAX TEMP:  42;

OMAHA EPPLEY   CLOUDY    38  27  64 N10       29.99R WCI  31
6HR MIN TEMP:  38; 6HR MAX TEMP:  43;

BEATRICE       CLOUDY    34  28  78 NW7       30.01S WCI  28
FALLS CITY     CLOUDY    39  25  57 NW8       29.98R WCI  33
6HR MIN TEMP:  32; 6HR MAX TEMP:  46;

NEBRASKA CITY  CLOUDY    39  27  63 N8        29.98S WCI  33
PLATTSMOUTH    CLOUDY    38  27  64 N9        29.99R WCI  32
$$

NEZ044-045-051>053-067-140700-
OMAHA AREA

CITY           SKY/WX    TMP DP  RH WIND       PRES   REMARKS
OMAHA EPPLEY   CLOUDY    38  27  64 N10       29.99R WCI  31
6HR MIN TEMP:  38; 6HR MAX TEMP:  43;

BLAIR          CLOUDY    37  28  67 N16       29.98S WCI  28
FREMONT        CLOUDY    37  26  63 NW7       30.01S WCI  32
MILLARD        CLOUDY    40  29  65 NW7       30.00R WCI  35
OFFUTT AFB     CLOUDY    38  26  61 N13       29.99R WCI  30
PLATTSMOUTH    CLOUDY    38  27  64 N9        29.99R WCI  32
WAHOO          CLOUDY    38  25  59 N12       30.00S WCI  30
$$




USA.gov is the U.S. government's official web portal to all federal, state and local government web resources and services.